[[{"header":{"parameterUnit":"m.s-1","parameterCategory":1,"la1":30.2991,"la2":30.254,"lo1":-89.0895,"lo2":-89.0444,"dy":0.0017,"dx":0.0017,"nx":28,"ny":28,"refTime":"2025-11-08T03:00:00:Z","depth":0,"parameterNumber":2,"parameterNumberName":"U-component_of_WINDS"},"data":[0,0,0,0,0,0,0,0,0,0,0,0,0,0,0,0,0,0,0,0,0,0,0,0,0,0,0,0,0,0,0,0,0,0,0,0,0,0,0,0,0,0,0,0,0,0,0,0,0,0,0,0,0,0,0,0,0,0,3.4135,3.4135,0,3.4152,3.4153,3.4153,3.4125,3.4124,3.4123,3.4122,3.414,3.4141,3.4142,0,0,0,0,0,0,0,0,0,0,0,0,0,3.408,3.4081,3.4135,3.4135,3.4136,3.4152,3.4153,3.4153,3.4125,3.4124,3.4123,3.4122,3.4139,3.4141,3.4142,0,0,0,0,0,0,0,0,0,0,0,0,0,3.4101,3.4082,3.4135,3.4124,3.4123,3.4152,3.4153,3.4153,3.4126,3.4124,3.4123,3.4122,3.4139,3.414,3.4142,3.4183,0,0,3.4149,3.4149,0,0,0,0,0,0,0,0,3.41,3.4104,3.4125,3.4125,3.4124,3.4135,3.4139,3.4163,3.4126,3.4125,3.4122,3.4121,3.4139,3.4141,3.4147,3.4184,3.4185,3.4149,3.415,3.4151,3.4151,0,0,0,0,0,0,0,3.4099,3.4103,3.4142,3.4126,3.4125,3.4119,3.412,3.4144,3.414,3.4125,3.4123,3.4125,3.4139,3.4145,3.4148,3.4185,3.4149,3.415,3.4152,3.4152,3.4258,3.4259,0,0,0,0,0,0,3.4099,3.4102,3.4141,3.4142,3.4108,3.4121,3.4122,3.4133,3.4139,3.4139,3.4126,3.4124,3.4143,3.4145,3.4148,3.4197,3.4151,3.4153,3.4154,3.4256,3.4258,3.426,0,0,0,0,0,0,3.4098,3.4103,3.4141,3.4122,3.4126,3.4123,3.4135,3.4134,3.4141,3.4141,3.414,3.4134,3.4142,3.4145,3.4175,3.4197,3.4154,3.4155,3.4254,3.4257,3.4259,3.4295,0,0,0,0,0,0,3.4096,3.4102,3.4117,3.4122,3.4127,3.4167,3.4137,3.4135,3.4145,3.4141,3.4148,3.4147,3.4141,3.4172,3.4177,3.4199,3.4157,3.4252,3.4255,3.4258,3.4291,3.4298,3.4303,0,0,0,0,0,3.4094,3.4126,3.4118,3.4123,3.4146,3.4168,3.4171,3.4163,3.4146,3.4162,3.4162,3.4147,3.4194,3.4175,3.4181,3.4204,3.4251,3.4254,3.4258,3.4289,3.4297,3.4303,0,0,0,0,0,0,3.4123,3.4126,3.4117,3.4152,3.416,3.4164,3.4182,3.4172,3.4185,3.4181,3.4171,3.4173,3.4205,3.4207,3.4186,3.4244,3.422,3.4225,3.4241,3.4249,3.4255,3.4253,3.4159,0,0,0,0,0,3.4133,3.4151,3.4153,3.4183,3.4188,3.4185,3.4194,3.4188,3.4196,3.4199,3.4201,3.421,3.4227,3.4238,3.4254,3.4292,3.4294,3.4311,3.4317,3.4322,3.4326,3.4348,3.4356,3.4272,3.4272,3.4272,0,0,3.4154,3.4158,3.417,3.4189,3.4195,3.4214,3.4188,3.4209,3.4224,3.4202,3.4231,3.4233,3.4242,3.4277,3.4293,3.428,3.435,3.4326,3.433,3.4332,3.4352,3.436,3.4368,3.4274,3.4274,3.4273,0,0,3.4203,3.4208,3.4234,3.4241,3.425,3.4248,3.4255,3.4261,3.4262,3.429,3.4276,3.4293,3.4322,3.433,3.4337,3.4392,3.438,3.4398,3.4429,3.4451,3.4457,3.4463,3.4483,3.4491,3.4402,3.4402,3.4402,0,3.4227,3.4256,3.4248,3.4271,3.4281,3.4264,3.4291,3.4298,3.4312,3.4319,3.4305,3.4343,3.4348,3.4385,3.4399,3.4405,3.4413,3.4396,3.4457,3.4463,3.4468,3.4487,3.4495,3.4404,3.4404,3.4404,3.4404,0,3.4287,3.4307,3.4327,3.4342,3.4354,3.4379,3.4376,3.4389,3.4382,3.4382,3.4413,3.4418,3.4435,3.4444,3.4437,3.4481,3.4473,3.4459,3.4433,3.4478,3.4496,3.4503,3.4407,3.4407,3.4406,3.4405,0,0,3.4351,3.4364,3.4371,3.4379,3.4389,3.4405,3.443,3.4448,3.4459,3.4471,3.4492,3.4518,3.4505,3.4514,3.4509,3.4528,3.4572,3.4511,3.4511,3.4522,3.4622,3.4633,3.4641,3.4564,3.4566,3.4567,3.4621,0,3.44,3.4443,3.4438,3.4479,3.4499,3.4485,3.4507,3.4516,3.4518,3.4535,3.4536,3.4555,3.4537,3.4542,3.4561,3.4563,3.4592,3.4559,3.4584,3.4585,3.4582,3.465,3.4661,3.4712,3.4628,3.4629,3.463,0,3.4461,3.4476,3.452,3.453,3.4537,3.4557,3.4574,3.4591,3.4602,3.4602,3.4613,3.4605,3.4631,3.4607,3.4643,3.4621,3.4631,3.4634,3.4636,3.4637,3.461,3.4653,3.4728,3.4735,3.4641,3.464,3.4639,0,3.4505,3.4535,3.4566,3.4572,3.4584,3.4599,3.4605,3.4615,3.4626,3.4641,3.4649,3.4667,3.4676,3.4691,3.4688,3.467,3.4726,3.4701,3.4727,3.4727,3.4738,3.4737,3.4815,3.4745,3.4745,3.4745,3.4745,0,3.4559,3.4586,3.4585,3.4604,3.4635,3.463,3.4661,3.4665,3.4674,3.4694,3.4683,3.4702,3.4698,3.4717,3.4715,3.4746,3.475,3.4751,3.4751,3.4752,3.4752,3.4758,3.4754,3.4747,3.4747,3.4746,3.4746,0,3.4611,3.4612,3.4644,3.4654,3.4657,3.468,3.4688,3.4706,3.4708,3.4733,3.4739,3.4742,3.4764,3.4763,3.4788,3.4787,3.4825,3.482,3.4821,3.482,3.4846,3.4844,3.493,3.4942,3.4865,3.4866,3.4867,0,3.4646,3.4667,3.4679,3.4692,3.4699,3.472,3.4732,3.4729,3.4742,3.4758,3.4775,3.4796,3.4813,3.485,3.4854,3.4873,3.4869,3.4898,3.4871,3.4873,3.4869,3.4868,3.487,3.4903,3.4903,3.4904,3.4905,0,3.4707,3.4707,3.4725,3.4744,3.4759,3.4774,3.4788,3.4799,3.4797,3.4813,3.4836,3.485,3.4876,3.4898,3.4917,3.4923,3.4914,3.4913,3.492,3.4922,3.4922,3.4922,3.4835,3.4911,3.491,3.491,3.4909,3.4909,3.4751,3.477,3.4782,3.4804,3.4814,3.4828,3.4846,3.4851,3.487,3.4891,3.4889,3.4915,3.4928,3.4953,3.4961,3.4982,3.4972,3.4982,3.4984,3.4987,3.499,3.4919,3.4986,3.4985,3.4985,3.4985,3.4985,0,3.4812,3.482,3.484,3.486,3.4877,3.4868,3.4883,3.4898,3.4922,3.4935,3.4952,3.498,3.5001,3.5008,3.503,3.5045,3.5042,3.5051,3.5049,3.5051,3.4998,3.4989,3.5053,3.5053,3.5053,3.5053,3.5053,3.5053,3.4846,3.4877,3.4879,3.4916,3.4924,3.495,3.4959,3.4972,3.4983,3.5014,3.5033,3.5037,3.5049,3.5071,3.5091,3.5093,3.5101,3.5112,3.5112,3.5062,3.5055,3.5048,3.504,3.5114,3.5114,3.5164,3.5164,3.5165]},{"header":{"parameterUnit":"m.s-1","parameterCategory":1,"la1":30.2991,"la2":30.254,"lo1":-89.0895,"lo2":-89.0444,"dy":0.0017,"dx":0.0017,"nx":28,"ny":28,"refTime":"2025-11-08T03:00:00:Z","depth":0,"parameterNumber":3,"parameterNumberName":"V-component_of_WINDS"},"data":[0,0,0,0,0,0,0,0,0,0,0,0,0,0,0,0,0,0,0,0,0,0,0,0,0,0,0,0,0,0,0,0,0,0,0,0,0,0,0,0,0,0,0,0,0,0,0,0,0,0,0,0,0,0,0,0,0,0,-7.1891,-7.1892,0,-7.1966,-7.1967,-7.1968,-7.1931,-7.1929,-7.1927,-7.1926,-7.1996,-7.2,-7.2004,0,0,0,0,0,0,0,0,0,0,0,0,0,-7.1712,-7.1715,-7.1891,-7.1892,-7.1893,-7.1966,-7.1967,-7.1968,-7.1932,-7.1929,-7.1927,-7.1925,-7.1995,-7.1999,-7.2004,0,0,0,0,0,0,0,0,0,0,0,0,0,-7.1788,-7.1717,-7.189,-7.1883,-7.1884,-7.1966,-7.1967,-7.1968,-7.1932,-7.1929,-7.1926,-7.1924,-7.1994,-7.1999,-7.2005,-7.2096,0,0,-7.2021,-7.2024,0,0,0,0,0,0,0,0,-7.1784,-7.1795,-7.1884,-7.1884,-7.1884,-7.1936,-7.193,-7.2011,-7.1933,-7.1913,-7.1925,-7.1922,-7.1978,-7.1985,-7.2005,-7.2099,-7.2102,-7.2022,-7.2025,-7.2027,-7.2029,0,0,0,0,0,0,0,-7.1779,-7.1792,-7.192,-7.1885,-7.1885,-7.1875,-7.1883,-7.1945,-7.1961,-7.1915,-7.1912,-7.1922,-7.1978,-7.2,-7.2006,-7.2103,-7.2022,-7.2027,-7.203,-7.2032,-7.2279,-7.2282,0,0,0,0,0,0,-7.1774,-7.1787,-7.1918,-7.1922,-7.1826,-7.1881,-7.1889,-7.1922,-7.196,-7.1963,-7.1925,-7.192,-7.1992,-7.2,-7.2009,-7.212,-7.2027,-7.2033,-7.2036,-7.2275,-7.2279,-7.2283,0,0,0,0,0,0,-7.1771,-7.1786,-7.1915,-7.1854,-7.187,-7.1887,-7.1924,-7.1925,-7.1947,-7.1968,-7.197,-7.1944,-7.199,-7.2001,-7.2076,-7.2122,-7.2035,-7.204,-7.2272,-7.2277,-7.2281,-7.2342,0,0,0,0,0,0,-7.1766,-7.1785,-7.1821,-7.1856,-7.1873,-7.1981,-7.1927,-7.1929,-7.1958,-7.1953,-7.1987,-7.1989,-7.1989,-7.2068,-7.2081,-7.2128,-7.2044,-7.2267,-7.2274,-7.228,-7.2336,-7.2348,-7.2359,0,0,0,0,0,-7.176,-7.1833,-7.1823,-7.1839,-7.1918,-7.1984,-7.1994,-7.1993,-7.1962,-7.1997,-7.2011,-7.1988,-7.2115,-7.2075,-7.209,-7.2139,-7.2265,-7.2272,-7.2279,-7.2331,-7.2346,-7.2359,0,0,0,0,0,0,-7.18,-7.1837,-7.1826,-7.1914,-7.1947,-7.1978,-7.2022,-7.2009,-7.205,-7.2043,-7.2039,-7.2047,-7.2125,-7.2139,-7.2095,-7.2231,-7.2185,-7.2195,-7.2219,-7.2233,-7.2245,-7.2239,-7.2049,0,0,0,0,0,-7.182,-7.1872,-7.1901,-7.1975,-7.1992,-7.2005,-7.2033,-7.2031,-7.2063,-7.2076,-7.2095,-7.2126,-7.2173,-7.2204,-7.2248,-7.2338,-7.2345,-7.238,-7.2391,-7.24,-7.2409,-7.246,-7.2476,-7.2307,-7.2307,-7.2307,0,0,-7.1859,-7.1886,-7.1919,-7.1984,-7.2009,-7.2062,-7.2016,-7.2074,-7.2113,-7.2084,-7.2157,-7.2172,-7.2207,-7.229,-7.2327,-7.2305,-7.2458,-7.241,-7.2417,-7.2421,-7.2469,-7.2485,-7.2499,-7.2312,-7.2311,-7.231,0,0,-7.196,-7.1985,-7.2051,-7.2078,-7.2118,-7.2127,-7.2143,-7.2178,-7.2187,-7.2261,-7.2241,-7.2287,-7.2368,-7.2394,-7.2418,-7.2533,-7.2514,-7.2547,-7.2607,-7.2656,-7.267,-7.2681,-7.2723,-7.2738,-7.2556,-7.2556,-7.2556,0,-7.2004,-7.2085,-7.2086,-7.2146,-7.2176,-7.2156,-7.2222,-7.2248,-7.2299,-7.2319,-7.2294,-7.2397,-7.2418,-7.2509,-7.2538,-7.2557,-7.2575,-7.2542,-7.2668,-7.268,-7.2691,-7.2731,-7.2746,-7.256,-7.2559,-7.2559,-7.2559,0,-7.2137,-7.2194,-7.2242,-7.2296,-7.2331,-7.2394,-7.2404,-7.2439,-7.2434,-7.2445,-7.2521,-7.2547,-7.2597,-7.2619,-7.2613,-7.2709,-7.2694,-7.2668,-7.2621,-7.2711,-7.2748,-7.2763,-7.2565,-7.2564,-7.2563,-7.2562,0,0,-7.2262,-7.232,-7.2337,-7.2363,-7.2407,-7.245,-7.2512,-7.2565,-7.2595,-7.2632,-7.2684,-7.2755,-7.2733,-7.276,-7.2757,-7.2801,-7.2892,-7.277,-7.2771,-7.2792,-7.3001,-7.302,-7.3038,-7.288,-7.2883,-7.2886,-7.2998,0,-7.2366,-7.2479,-7.2483,-7.2585,-7.2638,-7.2621,-7.2676,-7.2709,-7.2722,-7.2767,-7.278,-7.2832,-7.2798,-7.2815,-7.2857,-7.2872,-7.2934,-7.2864,-7.2928,-7.2931,-7.2921,-7.3057,-7.3077,-7.3182,-7.3013,-7.3015,-7.3017,0,-7.2502,-7.2547,-7.2655,-7.2695,-7.2717,-7.2767,-7.2816,-7.2861,-7.2898,-7.2904,-7.2937,-7.2929,-7.2993,-7.2945,-7.3032,-7.2985,-7.3012,-7.3024,-7.3028,-7.3033,-7.2979,-7.3067,-7.3215,-7.3231,-7.304,-7.3038,-7.3037,0,-7.2584,-7.2671,-7.2748,-7.277,-7.2818,-7.2854,-7.2875,-7.2909,-7.2941,-7.2984,-7.3005,-7.3054,-7.308,-7.3118,-7.3123,-7.3088,-7.3212,-7.3164,-7.3219,-7.3219,-7.3245,-7.3243,-7.34,-7.3262,-7.3262,-7.3262,-7.3261,0,-7.27,-7.2766,-7.2786,-7.2833,-7.2908,-7.2913,-7.2986,-7.3004,-7.3036,-7.3086,-7.3074,-7.312,-7.3125,-7.3173,-7.3177,-7.325,-7.3262,-7.3268,-7.3269,-7.327,-7.3269,-7.3287,-7.328,-7.3266,-7.3265,-7.3264,-7.3263,0,-7.2803,-7.2819,-7.2902,-7.2942,-7.2954,-7.3007,-7.3041,-7.3086,-7.3099,-7.3163,-7.3178,-7.3197,-7.3254,-7.3263,-7.3328,-7.3331,-7.3419,-7.3411,-7.3407,-7.3406,-7.3461,-7.3456,-7.3635,-7.3659,-7.3505,-7.3507,-7.3508,0,-7.2876,-7.2928,-7.2975,-7.3009,-7.3033,-7.3087,-7.3122,-7.3129,-7.3164,-7.3213,-7.3252,-7.3308,-7.3352,-7.3443,-7.3462,-7.3513,-7.3506,-7.3566,-7.3514,-7.3514,-7.3508,-7.3505,-7.3511,-7.3575,-7.3577,-7.3579,-7.358,0,-7.3004,-7.301,-7.3061,-7.3115,-7.3157,-7.3199,-7.3239,-7.3267,-7.328,-7.332,-7.3379,-7.3415,-7.3484,-7.3539,-7.359,-7.361,-7.3597,-7.3597,-7.3612,-7.3613,-7.3609,-7.3613,-7.3435,-7.3592,-7.3591,-7.359,-7.3589,-7.3589,-7.3094,-7.3141,-7.3183,-7.324,-7.3272,-7.3311,-7.3356,-7.3376,-7.3427,-7.3485,-7.3486,-7.3551,-7.3589,-7.3656,-7.3681,-7.3731,-7.3712,-7.3734,-7.3739,-7.3745,-7.3751,-7.3602,-7.374,-7.374,-7.3739,-7.3739,-7.3739,0,-7.3222,-7.325,-7.3303,-7.3361,-7.3407,-7.3394,-7.3439,-7.3477,-7.3535,-7.3573,-7.3619,-7.3688,-7.3743,-7.3768,-7.3822,-7.3857,-7.3853,-7.3871,-7.3868,-7.3874,-7.3764,-7.3746,-7.3874,-7.3874,-7.3874,-7.3874,-7.3874,-7.3874,-7.3294,-7.3373,-7.3385,-7.3479,-7.3505,-7.3572,-7.3598,-7.3634,-7.3665,-7.3743,-7.379,-7.3807,-7.384,-7.3897,-7.3947,-7.3953,-7.3973,-7.3994,-7.3998,-7.3895,-7.3881,-7.3868,-7.3851,-7.3999,-7.3999,-7.4103,-7.4104,-7.4105]}]]